| time (UTC) | temp F | wind direction | speed MPH | gust MPH | rain 1hr in | rain 24hr in | rain mn in | humidity % | barometer mb |
| 20260507035905 | 55 | 221 | 3.0 | 13.0 | 0.00 | 0.17 | 0.17 | 96 | 1006.7 |
| 20260507035005 | 55 | 207 | 3.0 | 9.0 | 0.00 | 0.17 | 0.17 | 96 | 1006.7 |
| 20260507034105 | 55 | 223 | 3.0 | 11.0 | 0.00 | 0.17 | 0.17 | 96 | 1006.7 |
| 20260507032306 | 55 | 247 | 4.0 | 10.0 | 0.00 | 0.17 | 0.17 | 96 | 1007.1 |
| 20260507031405 | 55 | 233 | 5.0 | 13.0 | 0.00 | 0.17 | 0.17 | 95 | 1006.9 |
| 20260507030505 | 55 | 236 | 6.0 | 14.0 | 0.00 | 0.17 | 0.17 | 95 | 1006.9 |
| 20260507025605 | 55 | 230 | 4.0 | 11.0 | 0.00 | 0.17 | 0.17 | 95 | 1006.8 |
| 20260507024704 | 55 | 205 | 6.0 | 18.0 | 0.00 | 0.17 | 0.17 | 95 | 1006.5 |
| 20260507023805 | 55 | 216 | 5.0 | 11.0 | 0.00 | 0.17 | 0.17 | 95 | 1006.8 |
| 20260507022905 | 55 | 216 | 7.0 | 17.0 | 0.00 | 0.17 | 0.17 | 95 | 1006.9 |
| 20260507022005 | 56 | 212 | 6.0 | 15.0 | 0.00 | 0.17 | 0.17 | 95 | 1007.0 |
| 20260507020204 | 56 | 220 | 6.0 | 16.0 | 0.00 | 0.17 | 0.17 | 95 | 1007.3 |
| 20260507015306 | 56 | 224 | 7.0 | 17.0 | 0.00 | 0.17 | 0.17 | 95 | 1007.4 |
| 20260507014405 | 56 | 222 | 7.0 | 15.0 | 0.00 | 0.17 | 0.17 | 95 | 1007.5 |
| 20260507013505 | 56 | 234 | 5.0 | 15.0 | 0.00 | 0.17 | 0.17 | 95 | 1007.6 |
| 20260507012604 | 56 | 238 | 7.0 | 15.0 | 0.00 | 0.17 | 0.17 | 95 | 1007.7 |
| 20260507010804 | 56 | 239 | 6.0 | 19.0 | 0.00 | 0.17 | 0.17 | 95 | 1007.8 |
| 20260507005004 | 56 | 228 | 7.0 | 18.0 | 0.01 | 0.17 | 0.17 | 95 | 1007.7 |
| 20260507003204 | 56 | 234 | 7.0 | 17.0 | 0.02 | 0.17 | 0.17 | 95 | 1007.6 |
| 20260507002306 | 57 | 228 | 6.0 | 17.0 | 0.04 | 0.17 | 0.17 | 95 | 1007.6 |
| 20260507001404 | 57 | 221 | 8.0 | 16.0 | 0.05 | 0.17 | 0.17 | 95 | 1007.6 |
| 20260507000505 | 57 | 226 | 10.0 | 21.0 | 0.05 | 0.16 | 0.16 | 95 | 1007.7 |
| 20260506235604 | 57 | 223 | 9.0 | 23.0 | 0.06 | 0.16 | 0.16 | 95 | 1007.6 |
| 20260506234704 | 57 | 216 | 9.0 | 21.0 | 0.09 | 0.16 | 0.16 | 95 | 1007.6 |
| 20260506233804 | 57 | 215 | 7.0 | 18.0 | 0.09 | 0.15 | 0.15 | 94 | 1007.4 |
| 20260506232004 | 56 | 196 | 7.0 | 15.0 | 0.08 | 0.13 | 0.13 | 94 | 1007.4 |
| 20260506231104 | 56 | 196 | 8.0 | 19.0 | 0.07 | 0.11 | 0.11 | 93 | 1007.3 |
| 20260506230204 | 56 | 207 | 8.0 | 19.0 | 0.08 | 0.11 | 0.11 | 93 | 1007.5 |
| 20260506225306 | 57 | 203 | 10.0 | 25.0 | 0.06 | 0.08 | 0.09 | 92 | 1007.6 |
| 20260506224404 | 57 | 211 | 9.0 | 19.0 | 0.06 | 0.07 | 0.07 | 92 | 1007.7 |
| 20260506222604 | 57 | 215 | 7.0 | 17.0 | 0.04 | 0.05 | 0.05 | 91 | 1007.9 |
| 20260506221704 | 57 | 210 | 10.0 | 20.0 | 0.04 | 0.05 | 0.05 | 91 | 1008.1 |
| 20260506220804 | 57 | 206 | 7.0 | 19.0 | 0.02 | 0.03 | 0.03 | 91 | 1008.2 |
| 20260506215904 | 57 | 199 | 6.0 | 13.0 | 0.02 | 0.03 | 0.03 | 90 | 1008.2 |
| 20260506215005 | 58 | 208 | 7.0 | 18.0 | 0.01 | 0.02 | 0.02 | 89 | 1008.1 |
| 20260506214104 | 58 | 205 | 7.0 | 16.0 | 0.00 | 0.01 | 0.01 | 89 | 1008.2 |
| 20260506213204 | 58 | 199 | 8.0 | 18.0 | 0.01 | 0.01 | 0.01 | 89 | 1008.1 |
| 20260506212306 | 58 | 205 | 8.0 | 20.0 | 0.01 | 0.01 | 0.01 | 88 | 1008.4 |
| 20260506211404 | 58 | 204 | 10.0 | 19.0 | 0.01 | 0.01 | 0.01 | 88 | 1008.5 |
| 20260506210504 | 58 | 203 | 10.0 | 24.0 | 0.01 | 0.01 | 0.01 | 87 | 1008.6 |
| 20260506205604 | 59 | 212 | 10.0 | 24.0 | 0.01 | 0.01 | 0.01 | 87 | 1008.6 |
| 20260506203804 | 59 | 214 | 11.0 | 23.0 | 0.01 | 0.01 | 0.01 | 87 | 1008.6 |
| 20260506202904 | 59 | 201 | 9.0 | 19.0 | 0.00 | 0.00 | 0.00 | 87 | 1008.7 |
| 20260506202004 | 59 | 208 | 9.0 | 19.0 | 0.00 | 0.00 | 0.00 | 87 | 1008.8 |
| 20260506200204 | 59 | 202 | 10.0 | 21.0 | 0.00 | 0.00 | 0.00 | 84 | 1008.9 |
| 20260506195306 | 59 | 210 | 8.0 | 20.0 | 0.00 | 0.00 | 0.00 | 84 | 1009.1 |
| 20260506193504 | 60 | 198 | 10.0 | 30.0 | 0.00 | 0.00 | 0.00 | 83 | 1009.3 |
| 20260506192603 | 60 | 204 | 9.0 | 30.0 | 0.00 | 0.00 | 0.00 | 83 | 1009.4 |
| 20260506191704 | 60 | 207 | 9.0 | 18.0 | 0.00 | 0.00 | 0.00 | 83 | 1009.4 |
| 20260506190803 | 60 | 205 | 10.0 | 25.0 | 0.00 | 0.00 | 0.00 | 82 | 1009.5 |
| 20260506185003 | 60 | 207 | 9.0 | 23.0 | 0.00 | 0.00 | 0.00 | 81 | 1009.5 |
| 20260506184104 | 61 | 205 | 9.0 | 22.0 | 0.00 | 0.00 | 0.00 | 81 | 1009.4 |
| 20260506183204 | 61 | 211 | 8.0 | 25.0 | 0.00 | 0.00 | 0.00 | 80 | 1009.9 |
| 20260506180504 | 62 | 205 | 9.0 | 23.0 | 0.00 | 0.00 | 0.00 | 80 | 1010.1 |
| 20260506175603 | 62 | 211 | 10.0 | 27.0 | 0.00 | 0.00 | 0.00 | 79 | 1010.3 |
| 20260506174703 | 63 | 205 | 9.0 | 21.0 | 0.00 | 0.00 | 0.00 | 79 | 1010.7 |
| 20260506173803 | 62 | 201 | 11.0 | 27.0 | 0.00 | 0.00 | 0.00 | 80 | 1010.9 |
| 20260506172903 | 62 | 208 | 10.0 | 24.0 | 0.00 | 0.00 | 0.00 | 79 | 1010.5 |
| 20260506172003 | 62 | 202 | 11.0 | 24.0 | 0.00 | 0.00 | 0.00 | 80 | 1010.7 |
| 20260506171103 | 62 | 203 | 10.0 | 23.0 | 0.00 | 0.00 | 0.00 | 80 | 1010.8 |
| 20260506170203 | 62 | 209 | 10.0 | 24.0 | 0.00 | 0.00 | 0.00 | 80 | 1010.9 |
| 20260506165305 | 61 | 209 | 11.0 | 22.0 | 0.00 | 0.00 | 0.00 | 82 | 1011.1 |
| 20260506164403 | 61 | 212 | 10.0 | 26.0 | 0.00 | 0.00 | 0.00 | 81 | 1011.3 |
| 20260506163503 | 61 | 205 | 9.0 | 22.0 | 0.00 | 0.00 | 0.00 | 81 | 1011.4 |
| 20260506162603 | 62 | 210 | 8.0 | 20.0 | 0.00 | 0.00 | 0.00 | 80 | 1011.4 |
| 20260506161703 | 62 | 212 | 8.0 | 25.0 | 0.00 | 0.00 | 0.00 | 80 | 1011.5 |
| 20260506160803 | 63 | 210 | 10.0 | 20.0 | 0.00 | 0.00 | 0.00 | 79 | 1011.7 |
| 20260506155903 | 63 | 214 | 12.0 | 25.0 | 0.00 | 0.00 | 0.00 | 78 | 1011.7 |
| 20260506155003 | 63 | 211 | 10.0 | 19.0 | 0.00 | 0.00 | 0.00 | 78 | 1011.8 |
| 20260506154103 | 62 | 210 | 13.0 | 26.0 | 0.00 | 0.00 | 0.00 | 80 | 1011.9 |
| 20260506153203 | 62 | 203 | 11.0 | 25.0 | 0.00 | 0.00 | 0.00 | 79 | 1011.8 |
| 20260506152305 | 63 | 220 | 11.0 | 26.0 | 0.00 | 0.00 | 0.00 | 80 | 1012.0 |
| 20260506151403 | 62 | 205 | 12.0 | 27.0 | 0.00 | 0.00 | 0.00 | 80 | 1012.0 |
| 20260506150504 | 62 | 199 | 11.0 | 22.0 | 0.00 | 0.00 | 0.00 | 80 | 1012.0 |
| 20260506145603 | 62 | 208 | 10.0 | 23.0 | 0.00 | 0.00 | 0.00 | 80 | 1011.9 |
| 20260506144703 | 62 | 216 | 10.0 | 21.0 | 0.00 | 0.00 | 0.00 | 81 | 1012.0 |
| 20260506143803 | 61 | 203 | 11.0 | 26.0 | 0.00 | 0.00 | 0.00 | 81 | 1011.9 |
| 20260506142903 | 61 | 209 | 10.0 | 26.0 | 0.00 | 0.00 | 0.00 | 80 | 1012.0 |
| 20260506141103 | 62 | 219 | 10.0 | 19.0 | 0.00 | 0.00 | 0.00 | 80 | 1011.7 |
| 20260506140203 | 62 | 212 | 10.0 | 23.0 | 0.00 | 0.00 | 0.00 | 80 | 1011.8 |
| 20260506134403 | 62 | 219 | 10.0 | 18.0 | 0.00 | 0.00 | 0.00 | 80 | 1012.1 |
| 20260506133503 | 62 | 211 | 8.0 | 21.0 | 0.00 | 0.00 | 0.00 | 80 | 1012.1 |
| 20260506132604 | 62 | 211 | 8.0 | 18.0 | 0.00 | 0.00 | 0.00 | 81 | 1012.2 |
| 20260506131703 | 61 | 225 | 10.0 | 22.0 | 0.00 | 0.00 | 0.00 | 82 | 1012.1 |
| 20260506130803 | 61 | 215 | 11.0 | 27.0 | 0.00 | 0.00 | 0.00 | 82 | 1012.0 |
| 20260506125903 | 61 | 209 | 10.0 | 21.0 | 0.00 | 0.00 | 0.00 | 83 | 1011.9 |
| 20260506125003 | 61 | 209 | 11.0 | 22.0 | 0.00 | 0.00 | 0.00 | 82 | 1012.0 |
| 20260506122305 | 60 | 215 | 7.0 | 17.0 | 0.00 | 0.00 | 0.00 | 84 | 1012.1 |
| 20260506121403 | 60 | 221 | 11.0 | 28.0 | 0.00 | 0.00 | 0.00 | 85 | 1012.0 |
| 20260506120503 | 59 | 212 | 9.0 | 22.0 | 0.00 | 0.00 | 0.00 | 85 | 1012.2 |
| 20260506115602 | 59 | 231 | 9.0 | 21.0 | 0.00 | 0.00 | 0.00 | 85 | 1012.3 |
| 20260506114703 | 59 | 222 | 8.0 | 25.0 | 0.00 | 0.00 | 0.00 | 86 | 1012.4 |
| 20260506113803 | 58 | 225 | 7.0 | 21.0 | 0.00 | 0.00 | 0.00 | 87 | 1012.5 |
| 20260506112902 | 58 | 211 | 7.0 | 20.0 | 0.00 | 0.00 | 0.00 | 88 | 1012.4 |
| 20260506112003 | 58 | 217 | 8.0 | 21.0 | 0.00 | 0.00 | 0.00 | 88 | 1012.4 |
| 20260506111103 | 58 | 218 | 6.0 | 16.0 | 0.00 | 0.00 | 0.00 | 88 | 1012.4 |
| 20260506110202 | 57 | 212 | 8.0 | 21.0 | 0.00 | 0.00 | 0.00 | 88 | 1012.4 |
| 20260506105305 | 57 | 215 | 7.0 | 16.0 | 0.00 | 0.00 | 0.00 | 89 | 1012.5 |
| 20260506104403 | 56 | 216 | 7.0 | 16.0 | 0.00 | 0.00 | 0.00 | 89 | 1012.5 |
| 20260506102603 | 56 | 209 | 8.0 | 17.0 | 0.00 | 0.00 | 0.00 | 90 | 1012.2 |
| 20260506094102 | 56 | 213 | 7.0 | 16.0 | 0.00 | 0.00 | 0.00 | 90 | 1012.2 |
| 20260506093202 | 56 | 212 | 7.0 | 18.0 | 0.00 | 0.00 | 0.00 | 90 | 1012.2 |
| 20260506092306 | 56 | 219 | 7.0 | 22.0 | 0.00 | 0.00 | 0.00 | 90 | 1012.2 |
| 20260506091402 | 56 | 214 | 6.0 | 16.0 | 0.00 | 0.00 | 0.00 | 90 | 1012.3 |
| 20260506090502 | 56 | 217 | 6.0 | 17.0 | 0.00 | 0.00 | 0.00 | 89 | 1012.4 |
| 20260506085602 | 57 | 212 | 6.0 | 19.0 | 0.00 | 0.00 | 0.00 | 89 | 1012.4 |
| 20260506084702 | 57 | 213 | 8.0 | 16.0 | 0.00 | 0.00 | 0.00 | 89 | 1012.4 |
| 20260506083802 | 57 | 215 | 6.0 | 15.0 | 0.00 | 0.00 | 0.00 | 89 | 1012.5 |
| 20260506082902 | 57 | 219 | 8.0 | 25.0 | 0.00 | 0.00 | 0.00 | 89 | 1012.5 |
| 20260506082002 | 57 | 221 | 8.0 | 21.0 | 0.00 | 0.00 | 0.00 | 89 | 1012.5 |
| 20260506081102 | 57 | 226 | 8.0 | 21.0 | 0.00 | 0.00 | 0.00 | 89 | 1012.4 |
| 20260506080202 | 57 | 222 | 7.0 | 16.0 | 0.00 | 0.00 | 0.00 | 89 | 1012.5 |
| 20260506073502 | 57 | 216 | 9.0 | 25.0 | 0.00 | 0.00 | 0.00 | 90 | 1012.5 |
| 20260506072602 | 56 | 224 | 8.0 | 17.0 | 0.00 | 0.00 | 0.00 | 90 | 1012.4 |
| 20260506071702 | 56 | 213 | 8.0 | 16.0 | 0.00 | 0.00 | 0.00 | 89 | 1012.5 |
| 20260506062305 | 57 | 215 | 7.0 | 17.0 | 0.00 | 0.00 | 0.00 | 87 | 1012.2 |
| 20260506061402 | 58 | 220 | 9.0 | 21.0 | 0.00 | 0.00 | 0.00 | 87 | 1012.3 |
| 20260506060502 | 57 | 225 | 8.0 | 21.0 | 0.00 | 0.00 | 0.00 | 87 | 1012.3 |
| 20260506051102 | 57 | 226 | 7.0 | 18.0 | 0.00 | 0.00 | 0.00 | 87 | 1012.8 |
| 20260506044402 | 57 | 232 | 7.0 | 17.0 | 0.00 | 0.00 | 0.00 | 87 | 1012.9 |
| 20260506043502 | 57 | 226 | 7.0 | 18.0 | 0.00 | 0.00 | 0.00 | 87 | 1012.8 |
| 20260506042602 | 57 | 230 | 9.0 | 20.0 | 0.00 | 0.00 | 0.00 | 87 | 1012.8 |
| 20260506041702 | 56 | 231 | 8.0 | 22.0 | 0.00 | 0.00 | 0.00 | 87 | 1012.8 |
| 20260506040802 | 56 | 225 | 8.0 | 25.0 | 0.00 | 0.00 | 0.00 | 87 | 1012.8 |